When you browse on this site, cookies collect data to enhance your experience and personalize the content and advertising you see.
Visit our Privacy Policy to learn more. By continuing to use the site, you agree to this use of cookies and data.
  • In Hungary
  • List of Countries
  • For 7 days
  • Water Temperature
  • Weather Map
  • News
  • Weather Widgets
  • user-avatar
    Login

    Hourly Weather Samara

    Today, 21 February, Friday

    Time Temperature Precipitation Wind Pressure Humidity
    00:00 -1°C° 0 mm 1 mps 763 mmHg 93%
    01:00 -1°C° 0 mm 1 mps 763 mmHg 93%
    02:00 -2°C° 0 mm 0 mps 764 mmHg 93%
    03:00 -2°C° 0 mm 0 mps 764 mmHg 95%
    04:00 -2°C° 0 mm 0 mps 764 mmHg 95%
    05:00 -2°C° 0 mm 0 mps 764 mmHg 95%
    06:00 -3°C° 0 mm 0 mps 764 mmHg 95%
    07:00 -2°C° 0 mm 0 mps 764 mmHg 95%
    08:00 -1°C° 0 mm 0 mps 765 mmHg 94%
    09:00 -1°C° 0 mm 0 mps 765 mmHg 94%
    16:00 +1°C° 0 mm 1 mps 765 mmHg 98%
    17:00 0°C° 0 mm 1 mps 766 mmHg 98%
    18:00 0°C° 0 mm 1 mps 766 mmHg 97%
    19:00 0°C° 0 mm 1 mps 766 mmHg 97%
    20:00 0°C° 0 mm 1 mps 766 mmHg 96%
    21:00 0°C° 0 mm 1 mps 767 mmHg 96%
    22:00 0°C° 0 mm 1 mps 767 mmHg 96%
    23:00 0°C° 0 mm 1 mps 767 mmHg 95%

    Tomorrow, 22 February, Saturday

    Time Temperature Precipitation Wind Pressure Humidity
    00:00 -1°C° 0 mm 0 mps 767 mmHg 95%
    01:00 -1°C° 0 mm 0 mps 767 mmHg 95%
    02:00 -1°C° 0 mm 0 mps 767 mmHg 95%
    03:00 -1°C° 0 mm 0 mps 768 mmHg 95%
    04:00 -1°C° 0 mm 0 mps 768 mmHg 95%
    05:00 -1°C° 0 mm 0 mps 768 mmHg 95%
    06:00 -1°C° 0 mm 0 mps 768 mmHg 96%
    07:00 -1°C° 0 mm 0 mps 768 mmHg 96%
    08:00 0°C° 0 mm 0 mps 769 mmHg 96%
    09:00 0°C° 0 mm 0 mps 769 mmHg 96%
    10:00 0°C° 0 mm 0 mps 769 mmHg 97%
    11:00 0°C° 0 mm 0 mps 769 mmHg 98%
    12:00 0°C° 0 mm 0 mps 769 mmHg 99%
    13:00 0°C° 0 mm 0 mps 769 mmHg 99%
    14:00 0°C° 0 mm 0 mps 769 mmHg 99%
    15:00 0°C° 0 mm 0 mps 769 mmHg 99%
    16:00 0°C° 0 mm 0 mps 769 mmHg 98%
    17:00 0°C° 0 mm 1 mps 769 mmHg 97%
    18:00 -1°C° 0 mm 1 mps 769 mmHg 97%
    19:00 -1°C° 0 mm 1 mps 769 mmHg 96%
    20:00 -4°C° 0 mm 2 mps 769 mmHg 95%
    21:00 -4°C° 0 mm 2 mps 769 mmHg 95%
    22:00 -5°C° 0 mm 2 mps 768 mmHg 95%
    23:00 -6°C° 0 mm 2 mps 768 mmHg 95%

    Day after tomorrow, 23 February, Sunday

    Time Temperature Precipitation Wind Pressure Humidity
    00:00 -6°C° 0 mm 2 mps 768 mmHg 95%
    01:00 -7°C° 0 mm 2 mps 767 mmHg 95%
    02:00 -8°C° 0 mm 3 mps 767 mmHg 96%
    03:00 -9°C° 0 mm 3 mps 766 mmHg 96%
    04:00 -8°C° 0 mm 3 mps 766 mmHg 97%
    05:00 -8°C° 0 mm 3 mps 765 mmHg 97%
    06:00 -8°C° 0 mm 3 mps 765 mmHg 97%
    07:00 -7°C° 0 mm 3 mps 764 mmHg 96%
    08:00 -8°C° 0 mm 4 mps 764 mmHg 94%
    09:00 -7°C° 0 mm 4 mps 763 mmHg 92%
    10:00 -7°C° 0 mm 4 mps 763 mmHg 93%
    11:00 -7°C° 0 mm 4 mps 762 mmHg 93%
    12:00 -7°C° 0 mm 4 mps 761 mmHg 93%
    13:00 -7°C° 0.4 mm 5 mps 760 mmHg 94%
    14:00 -6°C° 0.4 mm 5 mps 760 mmHg 95%
    15:00 -6°C° 0.4 mm 5 mps 759 mmHg 95%
    16:00 -6°C° 0.2 mm 5 mps 758 mmHg 95%
    17:00 -6°C° 0.2 mm 5 mps 758 mmHg 95%
    18:00 -5°C° 0.2 mm 6 mps 757 mmHg 94%
    19:00 -5°C° 0.2 mm 6 mps 756 mmHg 94%
    20:00 -5°C° 0.2 mm 6 mps 756 mmHg 94%
    21:00 -6°C° 0.2 mm 7 mps 755 mmHg 93%
    22:00 -5°C° 0.2 mm 6 mps 754 mmHg 93%
    23:00 -5°C° 0.2 mm 6 mps 754 mmHg 93%

    24 February, Monday

    Time Temperature Precipitation Wind Pressure Humidity
    00:00 -5°C° 0.2 mm 6 mps 753 mmHg 92%
    01:00 -5°C° 0.2 mm 6 mps 752 mmHg 93%
    02:00 -5°C° 0.2 mm 6 mps 751 mmHg 94%
    03:00 -5°C° 0.2 mm 6 mps 751 mmHg 95%
    04:00 -5°C° 0.3 mm 6 mps 750 mmHg 95%
    05:00 -4°C° 0.3 mm 6 mps 749 mmHg 95%
    06:00 -4°C° 0.3 mm 6 mps 748 mmHg 95%
    07:00 -4°C° 0.3 mm 6 mps 748 mmHg 96%
    08:00 -3°C° 0.3 mm 6 mps 748 mmHg 97%
    09:00 -1°C° 0.3 mm 5 mps 747 mmHg 98%
    10:00 -2°C° 0.4 mm 5 mps 747 mmHg 99%
    11:00 -2°C° 0.4 mm 5 mps 747 mmHg 99%
    12:00 -2°C° 0.4 mm 5 mps 746 mmHg 99%
    13:00 -2°C° 0.3 mm 4 mps 746 mmHg 99%
    14:00 -2°C° 0.3 mm 4 mps 746 mmHg 99%
    15:00 0°C° 0.3 mm 3 mps 746 mmHg 99%
    16:00 -1°C° 0 mm 3 mps 747 mmHg 98%
    17:00 -1°C° 0 mm 3 mps 747 mmHg 98%
    18:00 -1°C° 0 mm 2 mps 747 mmHg 97%
    19:00 -2°C° 0 mm 2 mps 748 mmHg 96%
    20:00 -3°C° 0 mm 2 mps 749 mmHg 95%
    21:00 -4°C° 0 mm 2 mps 749 mmHg 93%
    22:00 -4°C° 0 mm 2 mps 750 mmHg 93%
    23:00 -2°C° 0 mm 1 mps 750 mmHg 93%

    25 February, Tuesday

    Time Temperature Precipitation Wind Pressure Humidity
    00:00 -2°C° 0 mm 1 mps 750 mmHg 93%
    01:00 -3°C° 0 mm 1 mps 751 mmHg 93%
    02:00 -4°C° 0 mm 1 mps 751 mmHg 94%
    03:00 -6°C° 0 mm 2 mps 752 mmHg 94%
    04:00 -6°C° 0 mm 2 mps 752 mmHg 94%
    05:00 -6°C° 0 mm 2 mps 752 mmHg 94%
    06:00 -4°C° 0 mm 1 mps 752 mmHg 95%
    07:00 -6°C° 0 mm 2 mps 752 mmHg 94%
    08:00 -5°C° 0 mm 2 mps 753 mmHg 94%
    09:00 -4°C° 0 mm 2 mps 753 mmHg 94%
    10:00 -4°C° 0 mm 3 mps 753 mmHg 93%
    11:00 -4°C° 0 mm 3 mps 753 mmHg 92%
    12:00 -3°C° 0 mm 4 mps 753 mmHg 91%
    13:00 -3°C° 0 mm 4 mps 752 mmHg 91%
    14:00 -3°C° 0 mm 4 mps 752 mmHg 91%
    15:00 -2°C° 0 mm 4 mps 751 mmHg 91%
    16:00 -3°C° 0.3 mm 4 mps 751 mmHg 93%
    17:00 -3°C° 0.3 mm 4 mps 751 mmHg 95%
    18:00 -3°C° 0.3 mm 4 mps 751 mmHg 97%
    19:00 -3°C° 1.1 mm 4 mps 751 mmHg 97%
    20:00 -2°C° 1.1 mm 3 mps 751 mmHg 97%
    21:00 -2°C° 1.1 mm 3 mps 750 mmHg 98%
    22:00 -2°C° 0.8 mm 3 mps 750 mmHg 98%
    23:00 -2°C° 0.8 mm 3 mps 750 mmHg 98%

    26 February, Wednesday

    Time Temperature Precipitation Wind Pressure Humidity
    00:00 -2°C° 0.8 mm 3 mps 750 mmHg 98%
    01:00 -2°C° 0.5 mm 3 mps 750 mmHg 97%
    02:00 -2°C° 0.5 mm 3 mps 750 mmHg 97%
    03:00 -2°C° 0.5 mm 3 mps 749 mmHg 97%
    04:00 -2°C° 0.2 mm 2 mps 749 mmHg 98%
    05:00 -1°C° 0.2 mm 1 mps 749 mmHg 98%
    06:00 -2°C° 0.2 mm 0 mps 749 mmHg 98%
    07:00 -1°C° 0 mm 1 mps 750 mmHg 97%
    08:00 0°C° 0 mm 1 mps 750 mmHg 97%
    09:00 0°C° 0 mm 1 mps 751 mmHg 96%
    10:00 +1°C° 0 mm 1 mps 751 mmHg 97%
    11:00 -1°C° 0 mm 2 mps 751 mmHg 98%
    12:00 +1°C° 0 mm 2 mps 752 mmHg 99%
    13:00 0°C° 0 mm 3 mps 752 mmHg 98%
    14:00 -1°C° 0 mm 3 mps 752 mmHg 96%
    15:00 -1°C° 0 mm 3 mps 752 mmHg 95%
    16:00 -1°C° 0 mm 3 mps 753 mmHg 94%
    17:00 -2°C° 0 mm 3 mps 753 mmHg 93%
    18:00 -4°C° 0 mm 3 mps 754 mmHg 93%
    19:00 -5°C° 0 mm 3 mps 754 mmHg 93%
    20:00 -5°C° 0 mm 2 mps 754 mmHg 94%
    21:00 -6°C° 0 mm 2 mps 754 mmHg 94%
    22:00 -6°C° 0 mm 2 mps 754 mmHg 94%
    23:00 -6°C° 0 mm 1 mps 754 mmHg 93%
    Show more